This is the latest recevied weather packets stored in our database for station/object 9W8AKN-L. If no packets are shown the sender has not sent any weather packets the latest 10 day(s).
| Time | Temp. | Humidity | Pressure | Rain* | Wind** | Luminosity | Snow |
|---|---|---|---|---|---|---|---|
| 1777959138 | 30° C | 82% | 1007.4 hPa | - | - | - | - |
| 1777958238 | 30° C | 83% | 1007.7 hPa | - | - | - | - |
| 1777957338 | 30° C | 82% | 1007.9 hPa | - | - | - | - |
| 1777956437 | 29.44° C | 82% | 1008.2 hPa | - | - | - | - |
| 1777955537 | 29.44° C | 83% | 1008.3 hPa | - | - | - | - |
| 1777954637 | 28.89° C | 83% | 1008.6 hPa | - | - | - | - |
| 1777953737 | 28.89° C | 82% | 1008.7 hPa | - | - | - | - |
| 1777952837 | 28.89° C | 83% | 1009 hPa | - | - | - | - |
| 1777951937 | 28.89° C | 83% | 1009.3 hPa | - | - | - | - |
| 1777951037 | 28.33° C | 83% | 1009.6 hPa | - | - | - | - |
| 1777950137 | 28.33° C | 82% | 1009.8 hPa | - | - | - | - |
| 1777949237 | 28.33° C | 82% | 1010.2 hPa | - | - | - | - |
| 1777947438 | 27.78° C | 78% | 1010.9 hPa | - | - | - | - |
| 1777946538 | 27.22° C | 79% | 1011 hPa | - | - | - | - |
| 1777945638 | 27.22° C | 84% | 1011.2 hPa | - | - | - | - |
| 1777944737 | 27.22° C | 84% | 1011.3 hPa | - | - | - | - |
| 1777943837 | 26.67° C | 83% | 1011.3 hPa | - | - | - | - |
| 1777942938 | 26.67° C | 84% | 1011.6 hPa | - | - | - | - |
| 1777942037 | 26.67° C | 93% | 1011.6 hPa | - | - | - | - |
| 1777941137 | 26.67° C | 95% | 1011.7 hPa | - | - | - | - |
| 1777940237 | 26.67° C | 97% | 1011.3 hPa | - | - | - | - |
| 1777939337 | 26.67° C | 99% | 1011.2 hPa | - | - | - | - |
| 1777938437 | 26.11° C | 98% | 1011 hPa | - | - | - | - |
| 1777937537 | 26.11° C | 98% | 1010.9 hPa | - | - | - | - |
| 1777936637 | 26.11° C | 97% | 1010.8 hPa | - | - | - | - |
* Rain since midnight (hover to see other rain measurements)
** Current wind speed in m/s (hover to see current wind gust speed)